| time (UTC) | temp F | wind direction | speed knots | gust knots | rain 1hr in | rain 24hr in | rain mn in | humidity % | barometer mb |
| 20260507161601 | 62 | 94 | 0.9 | 1.7 | 0.00 | 0.28 | 0.12 | 65 | 1016.7 |
| 20260507160100 | 63 | 75 | 0.0 | 0.9 | 0.00 | 0.28 | 0.12 | 67 | 1016.7 |
| 20260507154604 | 63 | 75 | 0.0 | 1.7 | 0.00 | 0.33 | 0.12 | 65 | 1016.7 |
| 20260507153102 | 64 | 82 | 0.0 | 1.7 | 0.00 | 0.33 | 0.12 | 65 | 1016.7 |
| 20260507151558 | 66 | 229 | 0.0 | 0.9 | 0.00 | 0.33 | 0.12 | 63 | 1016.7 |
| 20260507150058 | 65 | 93 | 0.0 | 1.7 | 0.00 | 0.33 | 0.12 | 63 | 1016.9 |
| 20260507144557 | 64 | 78 | 0.0 | 1.7 | 0.00 | 0.35 | 0.12 | 66 | 1016.9 |
| 20260507143056 | 66 | 75 | 0.0 | 1.7 | 0.00 | 0.35 | 0.12 | 65 | 1016.8 |
| 20260507141555 | 66 | 86 | 0.9 | 2.6 | 0.00 | 0.35 | 0.12 | 65 | 1016.9 |
| 20260507140054 | 65 | 229 | 0.0 | 0.9 | 0.00 | 0.35 | 0.12 | 69 | 1016.9 |
| 20260507134555 | 65 | 238 | 0.0 | 0.9 | 0.00 | 0.39 | 0.12 | 70 | 1016.9 |
| 20260507133055 | 62 | 95 | 0.0 | 0.9 | 0.00 | 0.39 | 0.12 | 74 | 1017.2 |
| 20260507131600 | 60 | 90 | 0.0 | 3.5 | 0.00 | 0.39 | 0.12 | 76 | 1017.2 |
| 20260507130105 | 60 | 86 | 0.0 | 1.7 | 0.00 | 0.39 | 0.12 | 76 | 1017.3 |
| 20260507124553 | 60 | 87 | 0.0 | 2.6 | 0.00 | 0.41 | 0.12 | 75 | 1017.3 |
| 20260507123050 | 62 | 72 | 0.0 | 1.7 | 0.00 | 0.41 | 0.12 | 74 | 1017.2 |
| 20260507121559 | 63 | 219 | 0.0 | 4.3 | 0.00 | 0.41 | 0.12 | 66 | 1017.1 |
| 20260507120048 | 64 | 246 | 0.0 | 0.0 | 0.00 | 0.41 | 0.12 | 61 | 1017.1 |
| 20260507114600 | 64 | 264 | 0.0 | 2.6 | 0.00 | 0.50 | 0.12 | 62 | 1017.1 |
| 20260507113045 | 61 | 243 | 0.0 | 2.6 | 0.00 | 0.50 | 0.12 | 64 | 1017.2 |
| 20260507111545 | 62 | 247 | 1.7 | 5.2 | 0.00 | 0.50 | 0.12 | 63 | 1017.2 |
| 20260507110043 | 63 | 245 | 2.6 | 6.1 | 0.00 | 0.50 | 0.12 | 63 | 1017.3 |
| 20260507104540 | 62 | 239 | 0.0 | 3.5 | 0.00 | 0.51 | 0.12 | 68 | 1017.5 |
| 20260507103043 | 62 | 250 | 0.0 | 2.6 | 0.00 | 0.51 | 0.12 | 68 | 1017.5 |
| 20260507101537 | 59 | 255 | 0.9 | 3.5 | 0.00 | 0.51 | 0.12 | 70 | 1017.6 |
| 20260507100039 | 59 | 237 | 0.9 | 3.5 | 0.00 | 0.51 | 0.12 | 71 | 1017.7 |
| 20260507094537 | 58 | 269 | 1.7 | 6.1 | 0.00 | 0.51 | 0.12 | 72 | 1017.6 |
| 20260507093029 | 57 | 254 | 1.7 | 6.1 | 0.00 | 0.51 | 0.12 | 77 | 1017.7 |
| 20260507091525 | 56 | 259 | 0.0 | 3.5 | 0.00 | 0.51 | 0.12 | 82 | 1017.7 |
| 20260507090023 | 55 | 227 | 0.9 | 3.5 | 0.00 | 0.51 | 0.12 | 82 | 1017.4 |
| 20260507084521 | 55 | 216 | 0.9 | 3.5 | 0.00 | 0.51 | 0.12 | 85 | 1017.4 |
| 20260507083019 | 54 | 238 | 0.9 | 3.5 | 0.00 | 0.51 | 0.12 | 86 | 1017.4 |
| 20260507081533 | 53 | 231 | 1.7 | 5.2 | 0.00 | 0.51 | 0.12 | 87 | 1017.4 |
| 20260507080013 | 53 | 240 | 0.0 | 2.6 | 0.00 | 0.51 | 0.12 | 90 | 1017.3 |
| 20260507074522 | 52 | 240 | 0.9 | 4.3 | 0.00 | 0.51 | 0.12 | 90 | 1017.3 |
| 20260507073007 | 52 | 248 | 0.9 | 4.3 | 0.00 | 0.51 | 0.12 | 90 | 1017.2 |
| 20260507071504 | 51 | 239 | 0.9 | 3.5 | 0.00 | 0.51 | 0.12 | 90 | 1017.1 |
| 20260507070004 | 51 | 240 | 1.7 | 3.5 | 0.00 | 0.51 | 0.12 | 91 | 1017.0 |
| 20260507064600 | 51 | 253 | 1.7 | 4.3 | 0.00 | 0.51 | 0.12 | 91 | 1016.8 |
| 20260507063058 | 51 | 252 | 0.0 | 3.5 | 0.00 | 0.51 | 0.12 | 92 | 1016.9 |
| 20260507061554 | 50 | 251 | 0.9 | 2.6 | 0.01 | 0.51 | 0.12 | 92 | 1016.7 |
| 20260507060053 | 50 | 246 | 0.0 | 2.6 | 0.01 | 0.51 | 0.12 | 92 | 1016.6 |
| 20260507054628 | 50 | 250 | 0.0 | 3.5 | 0.01 | 0.51 | 0.12 | 92 | 1016.5 |
| 20260507053052 | 50 | 248 | 0.9 | 3.5 | 0.01 | 0.51 | 0.12 | 93 | 1016.3 |
| 20260507051547 | 50 | 240 | 0.9 | 4.3 | 0.00 | 0.50 | 0.11 | 92 | 1016.1 |
| 20260507050053 | 50 | 248 | 0.9 | 3.5 | 0.00 | 0.50 | 0.11 | 92 | 1016.1 |
| 20260507044549 | 50 | 252 | 0.9 | 4.3 | 0.00 | 0.50 | 0.11 | 92 | 1015.6 |
| 20260507043045 | 50 | 253 | 0.9 | 3.5 | 0.00 | 0.50 | 0.11 | 92 | 1015.6 |
| 20260507041545 | 50 | 236 | 0.9 | 4.3 | 0.00 | 0.50 | 0.11 | 93 | 1015.5 |
| 20260507040044 | 49 | 241 | 1.7 | 3.5 | 0.01 | 0.50 | 0.11 | 93 | 1015.4 |
| 20260507034542 | 49 | 259 | 0.9 | 4.3 | 0.01 | 0.50 | 0.11 | 93 | 1015.4 |
| 20260507033044 | 49 | 253 | 0.9 | 4.3 | 0.01 | 0.50 | 0.11 | 93 | 1015.3 |
| 20260507031546 | 49 | 242 | 1.7 | 4.3 | 0.01 | 0.50 | 0.11 | 93 | 1015.2 |
| 20260507030048 | 49 | 259 | 0.9 | 3.5 | 0.00 | 0.50 | 0.10 | 93 | 1015.2 |
| 20260507024541 | 49 | 247 | 0.9 | 5.2 | 0.00 | 0.50 | 0.10 | 93 | 1015.1 |
| 20260507023035 | 49 | 237 | 3.5 | 7.0 | 0.01 | 0.50 | 0.10 | 94 | 1015.2 |
| 20260507021535 | 49 | 289 | 2.6 | 6.1 | 0.02 | 0.50 | 0.10 | 94 | 1015.1 |
| 20260507020032 | 49 | 247 | 1.7 | 5.2 | 0.03 | 0.50 | 0.10 | 94 | 1014.9 |
| 20260507014542 | 49 | 236 | 2.6 | 7.0 | 0.05 | 0.50 | 0.10 | 94 | 1014.9 |
| 20260507013028 | 49 | 250 | 2.6 | 7.0 | 0.06 | 0.49 | 0.09 | 93 | 1014.7 |
| 20260507011528 | 49 | 263 | 0.9 | 4.3 | 0.05 | 0.47 | 0.08 | 93 | 1014.7 |
| 20260507010027 | 49 | 243 | 1.7 | 3.5 | 0.05 | 0.46 | 0.07 | 93 | 1014.7 |
| 20260507004524 | 49 | 257 | 0.9 | 3.5 | 0.02 | 0.44 | 0.05 | 92 | 1014.7 |
| 20260507003022 | 49 | 240 | 0.9 | 4.3 | 0.02 | 0.43 | 0.04 | 91 | 1014.6 |
| 20260507001526 | 50 | 282 | 0.9 | 2.6 | 0.02 | 0.43 | 0.03 | 90 | 1014.6 |
| 20260507000031 | 50 | 247 | 0.9 | 3.5 | 0.01 | 0.42 | 0.02 | 90 | 1014.6 |
| 20260506234517 | 50 | 240 | 2.6 | 5.2 | 0.01 | 0.42 | 0.02 | 89 | 1014.6 |
| 20260506233017 | 50 | 238 | 1.7 | 6.1 | 0.01 | 0.42 | 0.02 | 89 | 1014.7 |
| 20260506231514 | 50 | 255 | 0.9 | 4.3 | 0.01 | 0.41 | 0.02 | 89 | 1014.6 |
| 20260506230013 | 50 | 263 | 0.9 | 5.2 | 0.02 | 0.41 | 0.02 | 89 | 1014.6 |
| 20260506224512 | 50 | 269 | 0.0 | 3.5 | 0.02 | 0.41 | 0.02 | 89 | 1014.6 |
| 20260506223010 | 50 | 249 | 0.9 | 4.3 | 0.02 | 0.41 | 0.02 | 89 | 1014.5 |
| 20260506221509 | 50 | 249 | 0.0 | 3.5 | 0.01 | 0.40 | 0.01 | 89 | 1014.5 |
| 20260506220016 | 50 | 242 | 0.9 | 2.6 | 0.00 | 0.39 | 0.00 | 89 | 1014.4 |
| 20260506214506 | 50 | 249 | 0.9 | 4.3 | 0.00 | 0.39 | 0.39 | 89 | 1014.4 |
| 20260506213005 | 50 | 247 | 1.7 | 5.2 | 0.00 | 0.39 | 0.39 | 88 | 1014.3 |
| 20260506211508 | 51 | 261 | 0.9 | 3.5 | 0.00 | 0.39 | 0.39 | 88 | 1014.2 |
| 20260506210007 | 51 | 259 | 0.9 | 4.3 | 0.00 | 0.39 | 0.39 | 88 | 1014.0 |
| 20260506204501 | 51 | 253 | 0.9 | 4.3 | 0.01 | 0.39 | 0.39 | 89 | 1014.0 |
| 20260506203100 | 51 | 224 | 0.9 | 3.5 | 0.02 | 0.39 | 0.39 | 91 | 1013.8 |
| 20260506201557 | 51 | 253 | 2.6 | 5.2 | 0.02 | 0.39 | 0.39 | 91 | 1013.7 |
| 20260506200056 | 51 | 236 | 0.9 | 4.3 | 0.02 | 0.39 | 0.39 | 91 | 1013.5 |
| 20260506194614 | 51 | 239 | 1.7 | 4.3 | 0.02 | 0.39 | 0.39 | 90 | 1013.4 |
| 20260506193103 | 51 | 245 | 0.0 | 1.7 | 0.02 | 0.38 | 0.38 | 91 | 1013.4 |
| 20260506191551 | 51 | 254 | 0.0 | 0.9 | 0.03 | 0.38 | 0.38 | 91 | 1013.0 |
| 20260506190050 | 51 | 250 | 0.0 | 2.6 | 0.04 | 0.37 | 0.37 | 90 | 1012.7 |
| 20260506184548 | 51 | 225 | 0.0 | 1.7 | 0.05 | 0.36 | 0.36 | 91 | 1012.7 |
| 20260506183048 | 51 | 248 | 0.0 | 2.6 | 0.06 | 0.35 | 0.35 | 91 | 1012.7 |
| 20260506181546 | 51 | 257 | 0.0 | 1.7 | 0.06 | 0.35 | 0.35 | 91 | 1012.6 |
| 20260506180058 | 51 | 243 | 0.9 | 3.5 | 0.05 | 0.33 | 0.33 | 91 | 1012.5 |
| 20260506174545 | 51 | 241 | 1.7 | 4.3 | 0.05 | 0.46 | 0.31 | 91 | 1012.3 |
| 20260506173043 | 52 | 243 | 1.7 | 5.2 | 0.05 | 0.45 | 0.30 | 91 | 1012.1 |
| 20260506171541 | 52 | 244 | 1.7 | 4.3 | 0.06 | 0.44 | 0.28 | 91 | 1011.9 |
| 20260506170048 | 52 | 259 | 0.9 | 4.3 | 0.06 | 0.43 | 0.28 | 91 | 1011.8 |
| 20260506164538 | 52 | 239 | 2.6 | 3.5 | 0.06 | 0.42 | 0.27 | 90 | 1011.8 |
| 20260506163056 | 52 | 245 | 1.7 | 3.5 | 0.06 | 0.40 | 0.25 | 90 | 1011.7 |